CW7615 Weather Reports


Display with metric or nautical units.
time (UTC)temp
F
wind
direction
speed
MPH
gust
MPH
rain 1hr
in
rain 24hr
in
rain mn
in
humidity
%
barometer
mb
20260505183026 67 194 1.0 3.0 0.00 0.00 0.00 62 1010.8
20260505182527 67 160 1.0 3.0 0.00 0.00 0.00 62 1010.7
20260505182026 68 144 1.0 3.0 0.00 0.00 0.00 61 1010.7
20260505181526 68 144 0.0 0.0 0.00 0.00 0.00 62 1010.6
20260505181025 68 144 0.0 1.0 0.00 0.00 0.00 61 1010.6
20260505180525 67 144 0.0 1.0 0.00 0.00 0.00 61 1010.5
20260505180048 67 144 0.0 2.0 0.00 0.00 0.00 62 1010.6
20260505175528 67 144 0.0 2.0 0.00 0.00 0.00 61 1010.6
20260505175029 67 144 1.0 3.0 0.00 0.00 0.00 61 1010.6
20260505174546 67 144 1.0 4.0 0.00 0.00 0.00 61 1010.6
20260505174024 67 144 1.0 4.0 0.00 0.00 0.00 61 1010.8
20260505173526 67 201 0.0 3.0 0.00 0.00 0.00 61 1010.8
20260505173030 67 202 0.0 4.0 0.00 0.00 0.00 62 1011.0
20260505172522 67 202 0.0 5.0 0.00 0.00 0.00 62 1011.1
20260505172023 67 252 1.0 8.0 0.00 0.00 0.00 62 1011.2
20260505171524 67 163 5.0 10.0 0.00 0.00 0.00 62 1011.3
20260505171021 67 161 5.0 10.0 0.00 0.00 0.00 61 1011.2
20260505170521 67 220 4.0 12.0 0.00 0.00 0.00 61 1011.0
20260505170022 68 141 5.0 12.0 0.00 0.00 0.00 59 1011.0
20260505165522 68 184 5.0 10.0 0.00 0.00 0.00 58 1011.1
20260505165024 68 213 5.0 10.0 0.00 0.00 0.00 59 1011.1
20260505164521 68 175 6.0 11.0 0.00 0.00 0.00 59 1010.9
20260505164020 68 154 7.0 10.0 0.00 0.00 0.00 59 1010.9
20260505163520 69 169 6.0 13.0 0.00 0.00 0.00 58 1010.9
20260505163021 69 183 4.0 14.0 0.00 0.00 0.00 57 1011.0
20260505162521 69 194 6.0 14.0 0.00 0.00 0.00 57 1011.0
20260505162021 69 164 5.0 13.0 0.00 0.00 0.00 57 1010.9
20260505161519 70 162 7.0 14.0 0.00 0.00 0.00 56 1010.9
20260505161024 70 177 8.0 18.0 0.00 0.00 0.00 55 1010.8
20260505160519 70 168 8.0 19.0 0.00 0.00 0.00 55 1010.9
20260505153015 71 145 5.0 14.0 0.00 0.00 0.00 51 1010.9
20260505152516 71 186 8.0 14.0 0.00 0.00 0.00 50 1011.0
20260505152015 71 191 7.0 14.0 0.00 0.00 0.00 49 1011.0
20260505151515 71 225 5.0 14.0 0.00 0.00 0.00 49 1011.0
20260505151014 71 225 6.0 15.0 0.00 0.00 0.00 49 1011.0
20260505150517 71 189 7.0 15.0 0.00 0.00 0.00 48 1011.0
20260505140611 71 212 8.0 17.0 0.00 0.00 0.00 53 1011.4
20260505125004 72 209 4.0 12.0 0.00 0.00 0.00 53 1011.9
20260505124503 71 166 4.0 15.0 0.00 0.00 0.00 54 1011.9
20260505124003 72 189 9.0 15.0 0.00 0.00 0.00 51 1012.0
20260505123504 73 188 6.0 11.0 0.00 0.00 0.00 50 1012.0
20260505123002 73 146 6.0 11.0 0.00 0.00 0.00 48 1012.0
20260505122503 74 198 7.0 11.0 0.00 0.00 0.00 45 1012.0
20260505122001 74 215 3.0 16.0 0.00 0.00 0.00 46 1012.0
20260505121501 73 159 8.0 16.0 0.00 0.00 0.00 43 1012.0
20260505121001 73 173 7.0 15.0 0.00 0.00 0.00 43 1012.0
20260505120500 73 166 7.0 15.0 0.00 0.00 0.00 43 1012.1
20260505120000 74 178 6.0 12.0 0.00 0.00 0.00 43 1012.1
20260505115600 73 194 4.0 10.0 0.00 0.00 0.00 43 1012.2
20260505115100 73 183 7.0 13.0 0.00 0.00 0.00 43 1012.2
20260505114601 73 175 7.0 12.0 0.00 0.00 0.00 42 1012.3
20260505114058 73 198 5.0 10.0 0.00 0.00 0.00 43 1012.5
20260505113600 73 208 5.0 11.0 0.00 0.00 0.00 42 1012.4
20260505113111 73 207 6.0 11.0 0.00 0.00 0.00 44 1012.4
20260505112557 73 187 4.0 8.0 0.00 0.00 0.00 44 1012.5
20260505112056 73 165 1.0 11.0 0.00 0.00 0.00 52 1012.4
20260505111555 72 86 1.0 12.0 0.00 0.00 0.00 51 1012.6
20260505111054 72 103 3.0 12.0 0.00 0.00 0.00 50 1012.8
20260505110556 72 96 5.0 13.0 0.00 0.00 0.00 51 1012.8
20260505110153 72 101 6.0 13.0 0.00 0.00 0.00 52 1012.8
20260505102044 70 66 3.0 9.0 0.00 0.00 0.00 52 1012.9
20260505101543 70 117 4.0 10.0 0.00 0.00 0.00 52 1013.0
20260505101042 69 103 5.0 13.0 0.00 0.00 0.00 53 1013.0
20260505100541 69 57 3.0 13.0 0.00 0.00 0.00 53 1013.1
20260505100042 69 132 4.0 11.0 0.00 0.00 0.00 54 1012.9
20260505095540 69 150 6.0 13.0 0.00 0.00 0.00 54 1013.0
20260505095039 69 146 6.0 13.0 0.00 0.00 0.00 55 1012.9
20260505094538 69 155 6.0 11.0 0.00 0.00 0.00 55 1012.9
20260505094038 69 144 6.0 11.0 0.00 0.00 0.00 56 1012.8
20260505093537 69 134 7.0 10.0 0.00 0.00 0.00 56 1012.8
20260505093038 69 119 7.0 9.0 0.00 0.00 0.00 55 1012.7
20260505092536 69 147 4.0 8.0 0.00 0.00 0.00 55 1012.6
20260505092034 69 148 3.0 11.0 0.00 0.00 0.00 57 1012.6
20260505091540 69 130 5.0 11.0 0.00 0.00 0.00 55 1012.6
20260505091033 69 126 4.0 11.0 0.00 0.00 0.00 57 1012.6
20260505090531 69 126 5.0 10.0 0.00 0.00 0.00 57 1012.7
20260505090030 69 103 5.0 10.0 0.00 0.00 0.00 58 1012.7
20260505085532 69 120 5.0 9.0 0.00 0.00 0.00 57 1012.7
20260505085028 69 106 4.0 9.0 0.00 0.00 0.00 59 1012.6
20260505084529 68 126 4.0 9.0 0.00 0.00 0.00 57 1012.7
20260505084027 68 123 4.0 9.0 0.00 0.00 0.00 57 1012.6
20260505083525 68 128 4.0 8.0 0.00 0.00 0.00 57 1012.6
20260505083026 68 117 4.0 8.0 0.00 0.00 0.00 57 1012.5
20260505082523 68 118 5.0 8.0 0.00 0.00 0.00 57 1012.5
20260505082023 68 100 4.0 8.0 0.00 0.00 0.00 56 1012.6
20260505081522 68 128 4.0 7.0 0.00 0.00 0.00 55 1012.6
20260505081023 68 126 3.0 6.0 0.00 0.00 0.00 55 1012.7
20260505080519 67 117 3.0 7.0 0.00 0.00 0.00 55 1012.6
20260505080022 67 135 3.0 7.0 0.00 0.00 0.00 56 1012.7
20260505075518 66 119 3.0 7.0 0.00 0.00 0.00 56 1012.7
20260505075021 66 121 3.0 8.0 0.00 0.00 0.00 56 1012.8
20260505074518 66 124 5.0 8.0 0.00 0.00 0.00 56 1012.8
20260505074018 66 130 4.0 7.0 0.00 0.00 0.00 56 1012.9
20260505073517 66 124 3.0 6.0 0.00 0.00 0.00 55 1012.9
20260505073016 67 116 3.0 4.0 0.00 0.00 0.00 57 1012.8
20260505072521 67 109 3.0 4.0 0.00 0.00 0.00 56 1012.8
20260505072014 67 121 2.0 3.0 0.00 0.00 0.00 55 1012.8
20260505071513 67 120 1.0 4.0 0.00 0.00 0.00 55 1012.8
20260505071013 67 118 2.0 4.0 0.00 0.00 0.00 53 1012.8
20260505070516 67 47 0.0 1.0 0.00 0.00 0.00 51 1012.7
20260505070013 67 47 0.0 1.0 0.00 0.00 0.00 52 1012.8
20260505065516 67 47 0.0 3.0 0.00 0.00 0.00 52 1012.7
20260505065011 67 13 0.0 4.0 0.00 0.00 0.00 53 1012.7
20260505064510 66 12 2.0 4.0 0.00 0.00 0.00 54 1012.6
20260505064008 65 11 1.0 4.0 0.00 0.00 0.00 56 1012.7
20260505063507 64 5 2.0 4.0 0.00 0.00 0.00 58 1012.7
20260505063007 63 5 3.0 4.0 0.00 0.00 0.00 58 1012.6
20260505062510 62 355 1.0 4.0 0.00 0.00 0.00 59 1012.7
20260505062008 61 355 0.0 4.0 0.00 0.00 0.00 60 1012.7
20260505061508 61 355 2.0 4.0 0.00 0.00 0.00 59 1012.7
20260505061002 61 355 1.0 5.0 0.00 0.00 0.00 59 1012.6
20260505060501 61 69 1.0 4.0 0.00 0.00 0.00 59 1012.5
20260505060105 61 290 0.0 3.0 0.00 0.00 0.00 59 1012.6
20260505055559 61 290 1.0 5.0 0.00 0.00 0.00 59 1012.5
20260505055058 61 306 2.0 8.0 0.00 0.00 0.00 60 1012.5
20260505054606 61 343 2.0 8.0 0.00 0.00 0.00 60 1012.4
20260505054057 61 348 3.0 9.0 0.00 0.00 0.00 60 1012.2
20260505053557 61 325 2.0 9.0 0.00 0.00 0.00 60 1012.1
20260505053058 61 335 3.0 10.0 0.00 0.00 0.00 60 1012.2
20260505052555 61 15 4.0 10.0 0.00 0.00 0.00 60 1012.2
20260505052055 61 355 4.0 9.0 0.00 0.00 0.00 60 1012.0
20260505051612 61 50 1.0 4.0 0.00 0.00 0.00 60 1012.1
20260505051055 61 38 0.0 2.0 0.00 0.00 0.00 60 1012.0
20260505050552 61 107 0.0 2.0 0.00 0.00 0.00 59 1011.9
20260505041550 62 42 7.0 14.0 0.00 0.00 0.00 58 1011.8
20260505041047 62 5 7.0 13.0 0.00 0.00 0.00 58 1011.8
20260505040545 62 58 6.0 13.0 0.00 0.00 0.00 58 1011.9
20260505040045 62 360 7.0 12.0 0.00 0.00 0.00 58 1011.8
20260505035546 62 340 8.0 18.0 0.00 0.00 0.00 58 1011.8
20260505035044 62 22 9.0 18.0 0.00 0.00 0.00 58 1011.9
20260505034544 62 5 8.0 14.0 0.00 0.00 0.00 58 1011.8
20260505034043 63 349 8.0 14.0 0.00 0.00 0.00 58 1011.8
20260505033542 63 53 6.0 15.0 0.00 0.00 0.00 58 1011.8
20260505033042 63 360 9.0 15.0 0.00 0.00 0.00 58 1012.0
20260505032541 63 9 10.0 14.0 0.00 0.00 0.00 58 1011.9
20260505032042 63 350 6.0 14.0 0.00 0.00 0.00 57 1012.1
20260505031541 63 26 8.0 14.0 0.00 0.00 0.00 56 1012.1
20260505031040 63 351 9.0 15.0 0.00 0.00 0.00 56 1012.0
20260505030543 63 12 10.0 16.0 0.00 0.00 0.00 56 1012.0
20260505030039 63 5 9.0 14.0 0.00 0.00 0.00 56 1012.1
20260505025539 63 5 6.0 13.0 0.00 0.00 0.00 55 1012.0
20260505025037 63 11 7.0 16.0 0.00 0.00 0.00 55 1012.1
20260505024545 63 24 10.0 16.0 0.00 0.00 0.00 55 1012.0
20260505024036 63 15 9.0 14.0 0.00 0.00 0.00 55 1012.1
20260505023535 63 29 7.0 13.0 0.00 0.00 0.00 54 1012.0
20260505023033 63 5 6.0 14.0 0.00 0.00 0.00 54 1012.0
20260505022536 63 25 8.0 19.0 0.00 0.00 0.00 54 1012.0
20260505022033 63 35 9.0 19.0 0.00 0.00 0.00 53 1012.0
20260505021533 64 350 6.0 16.0 0.00 0.00 0.00 53 1012.0
20260505021031 64 360 8.0 15.0 0.00 0.00 0.00 52 1012.0
20260505020532 64 335 7.0 14.0 0.00 0.00 0.00 51 1012.0
20260505020031 64 360 7.0 13.0 0.00 0.00 0.00 49 1012.1
20260505015530 64 22 8.0 13.0 0.00 0.00 0.00 49 1012.1
20260505015028 64 13 5.0 13.0 0.00 0.00 0.00 48 1012.1
20260505014528 64 25 6.0 13.0 0.00 0.00 0.00 48 1012.1
20260505014029 64 360 5.0 12.0 0.00 0.00 0.00 48 1012.3
20260505013527 64 360 7.0 10.0 0.00 0.00 0.00 48 1012.2
20260505013025 64 360 5.0 10.0 0.00 0.00 0.00 47 1012.3
20260505012525 64 10 5.0 10.0 0.00 0.00 0.00 48 1012.3
20260505012026 64 351 3.0 9.0 0.00 0.00 0.00 48 1012.4
20260505011525 64 340 4.0 9.0 0.00 0.00 0.00 47 1012.3
20260505011024 64 355 4.0 9.0 0.00 0.00 0.00 47 1012.5
20260505010523 64 40 5.0 9.0 0.00 0.00 0.00 47 1012.5
20260505010022 64 330 3.0 6.0 0.00 0.00 0.00 47 1012.7
20260505005523 63 5 2.0 5.0 0.00 0.00 0.00 47 1012.7
20260505005022 63 317 2.0 5.0 0.00 0.00 0.00 47 1012.8
20260505004521 63 306 2.0 4.0 0.00 0.00 0.00 46 1012.8
20260505004020 64 355 1.0 4.0 0.00 0.00 0.00 47 1012.8
20260505003523 64 351 2.0 4.0 0.00 0.00 0.00 45 1012.9
20260505003023 64 254 1.0 2.0 0.00 0.00 0.00 44 1012.9
20260505002519 64 254 1.0 3.0 0.00 0.00 0.00 43 1012.8
20260505002019 64 254 2.0 3.0 0.00 0.00 0.00 44 1012.9
20260505001520 64 253 0.0 8.0 0.00 0.00 0.00 45 1012.9
20260505001018 64 250 1.0 8.0 0.00 0.00 0.00 45 1012.9
20260505000518 64 327 1.0 11.0 0.00 0.00 0.00 45 1012.9
20260505000018 64 5 2.0 14.0 0.00 0.00 0.00 46 1012.8
20260504235517 64 24 4.0 14.0 0.00 0.00 0.00 46 1012.9
20260504235017 63 304 2.0 8.0 0.00 0.00 0.00 46 1013.0
20260504234520 63 355 1.0 4.0 0.00 0.00 0.00 46 1013.0
20260504234015 63 259 0.0 2.0 0.00 0.00 0.00 47 1013.1
20260504233515 64 259 0.0 1.0 0.00 0.00 0.00 47 1013.1
20260504233015 64 259 0.0 3.0 0.00 0.00 0.00 46 1013.0
20260504232513 64 259 1.0 3.0 0.00 0.00 0.00 47 1013.2
20260504232012 64 259 0.0 3.0 0.00 0.00 0.00 46 1013.1
20260504231512 64 259 0.0 3.0 0.00 0.00 0.00 46 1013.2
20260504231012 64 259 0.0 2.0 0.00 0.00 0.00 47 1013.3
20260504230512 64 259 0.0 3.0 0.00 0.00 0.00 47 1013.3
20260504230012 65 259 2.0 3.0 0.00 0.00 0.00 47 1013.3
20260504225516 65 336 0.0 2.0 0.00 0.00 0.00 47 1013.3
20260504225012 65 336 0.0 2.0 0.00 0.00 0.00 48 1013.3
20260504224511 65 336 1.0 2.0 0.00 0.00 0.00 47 1013.4
20260504224010 65 336 0.0 2.0 0.00 0.00 0.00 47 1013.4
20260504223511 65 336 0.0 6.0 0.00 0.00 0.00 48 1013.4
20260504223010 65 336 1.0 9.0 0.00 0.00 0.00 47 1013.4
20260504222610 65 267 2.0 9.0 0.00 0.00 0.00 48 1013.4
20260504222007 64 323 4.0 8.0 0.00 0.00 0.00 48 1013.3
20260504221510 64 319 1.0 4.0 0.00 0.00 0.00 52 1013.4
20260504221007 63 270 0.0 4.0 0.00 0.00 0.00 53 1013.4
20260504220504 63 270 1.0 4.0 0.00 0.00 0.00 55 1013.5
20260504220005 63 228 0.0 4.0 0.00 0.00 0.00 56 1013.5
20260504215505 63 228 1.0 4.0 0.00 0.00 0.00 60 1013.4
20260504215007 62 283 0.0 4.0 0.00 0.00 0.00 60 1013.5
20260504214504 62 197 1.0 4.0 0.00 0.00 0.00 67 1013.5
20260504214003 62 236 0.0 3.0 0.00 0.00 0.00 67 1013.5
20260504213503 62 191 0.0 2.0 0.00 0.00 0.00 66 1013.5
20260504213004 63 191 1.0 2.0 0.00 0.00 0.00 65 1013.4
20260504212503 63 191 0.0 3.0 0.00 0.00 0.00 62 1013.5
20260504212003 63 191 0.0 3.0 0.00 0.00 0.00 60 1013.4
20260504211502 63 190 0.0 3.0 0.00 0.00 0.00 61 1013.3
20260504211003 63 209 0.0 3.0 0.00 0.00 0.00 59 1013.3
20260504210503 64 209 1.0 3.0 0.00 0.00 0.00 58 1013.3
20260504210002 64 310 0.0 2.0 0.00 0.00 0.00 55 1013.4
20260504205504 64 310 0.0 3.0 0.00 0.00 0.00 54 1013.2
20260504205001 63 310 1.0 3.0 0.00 0.00 0.00 57 1013.2
20260504204503 63 310 1.0 3.0 0.00 0.00 0.00 56 1013.2
20260504204101 63 310 0.0 5.0 0.00 0.00 0.00 58 1013.2
20260504203601 63 24 1.0 5.0 0.00 0.00 0.00 61 1013.1
20260504203109 63 333 1.0 8.0 0.00 0.00 0.00 64 1013.0
20260504203002 63 355 1.0 8.0 0.00 0.00 0.00 65 1013.0
20260504202600 63 348 2.0 8.0 0.00 0.00 0.00 66 1013.1
20260504202100 63 333 3.0 8.0 0.00 0.00 0.00 67 1013.1
20260504201600 63 355 2.0 6.0 0.00 0.00 0.00 68 1013.0
20260504201102 63 335 2.0 5.0 0.00 0.00 0.00 68 1013.1
20260504200558 63 338 1.0 5.0 0.00 0.00 0.00 68 1013.0
20260504200058 63 355 2.0 5.0 0.00 0.00 0.00 68 1012.9
20260504195557 63 360 1.0 5.0 0.00 0.00 0.00 68 1012.9
20260504195057 64 190 0.0 2.0 0.00 0.00 0.00 68 1012.8
20260504194607 64 190 0.0 3.0 0.00 0.00 0.00 68 1012.8
20260504194058 64 190 0.0 3.0 0.00 0.00 0.00 67 1012.7
20260504193559 64 190 0.0 0.0 0.00 0.00 0.00 67 1012.6
20260504193057 64 190 0.0 0.0 0.00 0.00 0.00 67 1012.6
20260504192556 65 190 0.0 0.0 0.00 0.00 0.00 66 1012.6
20260504192057 65 190 0.0 0.0 0.00 0.00 0.00 66 1012.6
20260504191557 65 190 0.0 0.0 0.00 0.00 0.00 66 1012.6
20260504191057 65 190 0.0 0.0 0.00 0.00 0.00 65 1012.6
20260504190556 65 190 0.0 0.0 0.00 0.00 0.00 65 1012.5
20260504190128 65 190 0.0 0.0 0.00 0.00 0.00 65 1012.6
20260504185556 65 190 0.0 2.0 0.00 0.00 0.00 65 1012.6
20260504185055 65 190 1.0 2.0 0.00 0.00 0.00 65 1012.5
20260504184556 65 190 0.0 4.0 0.00 0.00 0.00 65 1012.6
20260504184055 65 186 2.0 4.0 0.00 0.00 0.00 65 1012.6
20260504183555 66 192 0.0 4.0 0.00 0.00 0.00 65 1012.4